GPS BIIRM-1 (PRN 17)

Last updated on Sat Nov 01 2025 00:03:15 GMT+0000 (Coordinated Universal Time)

1 28874U 05038A 25303.26502959 -.00000004 00000+0 00000+0 0 9999 2 28874 55.0701 282.4508 0133569 292.4806 248.9796 2.00551080147228
UTC large
Height (km)
Speed (km/s)
/
Latitude / Longitude
Inclination (degrees)
Orbital Period (minutes)
Azimuth
Elevation
Range (km)
Doppler Factor

Next 0 passes for location: London (51.5072 / 0.1276)

Sorry there are no passes over London.